UAE648 DTNH-LTFM

Flight info

Callsign UAE648
Flight time N/A
Altitude 40000
Route SENTI DCT UXUTA DCT DELIK DCT LATAN/N0477F410 DCT PIKOS DCT PEREN DCT IDILO DCT GOLDO
Aircraft A388/J-SADE2E3FGHIJ3J4J5M1RWXY/LB1D1

Departure

Time 2026-04-28 18:38
Airport Enfidha - Hammamet International Airport (DTNH)

Arrival

Time N/A
Airport İstanbul Airport (LTFM)
Time Latitude Longitude Altitude Speed Heading
2026-04-28 17:55 36.08122 10.43801 22 ft 0 kts 45°
2026-04-28 18:28 36.08119 10.43797 21 ft 3 kts 46°
2026-04-28 18:28 36.08101 10.43772 23 ft 4 kts 49°
2026-04-28 18:28 36.08089 10.43749 30 ft 4 kts 97°
2026-04-28 18:29 36.08091 10.43736 31 ft 0 kts 118°
2026-04-28 18:32 36.08087 10.43748 31 ft 5 kts 118°
2026-04-28 18:32 36.08064 10.43771 31 ft 5 kts 150°
2026-04-28 18:33 36.08032 10.43790 29 ft 6 kts 161°
2026-04-28 18:33 36.07984 10.43797 30 ft 9 kts 177°
2026-04-28 18:33 36.07909 10.43800 32 ft 13 kts 179°
2026-04-28 18:33 36.07809 10.43801 34 ft 16 kts 181°
2026-04-28 18:34 36.07754 10.43725 33 ft 16 kts 258°
2026-04-28 18:34 36.07746 10.43577 32 ft 19 kts 268°
2026-04-28 18:34 36.07745 10.43397 33 ft 22 kts 271°
2026-04-28 18:34 36.07747 10.43198 32 ft 24 kts 271°
2026-04-28 18:35 36.07749 10.42989 35 ft 25 kts 269°
2026-04-28 18:35 36.07749 10.42776 37 ft 25 kts 270°
2026-04-28 18:35 36.07750 10.42552 38 ft 26 kts 270°
2026-04-28 18:35 36.07750 10.42494 39 ft 3 kts 270°
2026-04-28 18:36 36.07751 10.42430 39 ft 16 kts 270°
2026-04-28 18:36 36.07751 10.42272 37 ft 21 kts 269°
2026-04-28 18:36 36.07742 10.42085 35 ft 18 kts 238°
2026-04-28 18:36 36.07711 10.42059 35 ft 6 kts 202°
2026-04-28 18:37 36.07666 10.42052 36 ft 8 kts 178°
2026-04-28 18:37 36.07596 10.42060 36 ft 6 kts 144°
2026-04-28 18:37 36.07583 10.42102 37 ft 5 kts 84°
2026-04-28 18:37 36.07584 10.42124 37 ft 10 kts 91°
2026-04-28 18:38 36.07591 10.42553 36 ft 91 kts 85°
2026-04-28 18:38 36.07586 10.43603 37 ft 147 kts 89°
2026-04-28 18:38 36.07597 10.44958 367 ft 153 kts 88°
2026-04-28 18:38 36.07523 10.46083 1059 ft 143 kts 109°
2026-04-28 18:39 36.07517 10.46107 1072 ft 143 kts 110°
2026-04-28 18:39 36.06859 10.46981 1688 ft 146 kts 155°
2026-04-28 18:39 36.05793 10.47073 2080 ft 166 kts 191°
2026-04-28 18:39 36.04766 10.46283 2348 ft 188 kts 228°
2026-04-28 18:40 36.04265 10.44728 2488 ft 208 kts 264°
2026-04-28 18:40 36.04598 10.42944 2573 ft 223 kts 299°
2026-04-28 18:40 36.05714 10.41612 2681 ft 227 kts 333°
2026-04-28 18:40 36.07254 10.41201 2730 ft 237 kts
2026-04-28 18:41 36.08859 10.41872 3105 ft 254 kts 36°
2026-04-28 18:41 36.10065 10.43504 3615 ft 266 kts 65°
2026-04-28 18:41 36.10497 10.45694 4565 ft 264 kts 93°
2026-04-28 18:41 36.10068 10.47887 5444 ft 265 kts 119°
2026-04-28 18:42 36.09010 10.49768 6276 ft 270 kts 128°
2026-04-28 18:42 36.08021 10.51760 7109 ft 277 kts 117°
2026-04-28 18:42 36.07386 10.54037 7943 ft 283 kts 105°
2026-04-28 18:42 36.07063 10.56475 8765 ft 291 kts 98°
2026-04-28 18:43 36.06915 10.59000 9551 ft 298 kts 94°